Powrót do katalogu

STARLINK-2466

AktywnyŁącznośćVLEO
NORAD 48125·PAYLOAD·🇺🇸 United States

Wystrzelony Apr 7, 2021 z Cape Canaveral Space Force Station

Loading…

Następne Przeloty (najbliższe 24 godziny)

TLE

ŚwieżeSource: CelesTrak SupGP

Epoka: Sep 15, 2026, 02:34 UTC

1 48125C 21027AK  26258.10743056  .00036341  00000+0  11684-2 0  2587
2 48125  53.1595   4.0768 0001233  82.3879  85.4483 15.31689598    19

Śledź STARLINK-2466 w czasie rzeczywistym z AllMySat

Download on the App Store